QPF
0.00 0.00 0.00 0.00 0.00 0.00 0.00 0.00 0.00 0.00 0.00 0.00 0.00 0.00 0.00 0.00 0.00 0.00 0.00 0.00 0.00 0.00 0.00 0.00 0.00 0.00 0.00 0.00 0.00 0.00 0.00 0.00 0.00 0.00 0.00 0.00 0.00 0.00 0.00 0.00 0.00 0.00 0.00 0.00 0.00
0.00 0.00 0.00 0.00 0.00 0.00 0.00 0.00 0.00 0.00 0.00 0.00 0.00 0.00 0.00 0.00 0.00 0.00 0.00 0.00 0.00 0.00 0.00 0.00 0.00 0.00 0.00 0.00 0.00 0.00 0.00 0.00 0.00 0.00 0.00 0.00 0.00 0.00 0.00 0.00 0.00 0.00 0.00 0.00 0.00
0.00 0.00 0.00 0.00 0.00 0.00 0.00 0.00 0.00 0.00 0.00 0.00 0.00 0.00 0.00 0.00 0.00 0.00 0.00 0.00 0.00 0.00 0.00 0.00 0.00 0.00 0.00 0.00 0.00 0.00 0.00 0.00 0.00 0.00 0.00 0.00 0.00 0.00 0.00 0.00 0.00 0.00 0.00 0.00 0.00
0.00 0.00 0.00 0.00 0.00 0.00 0.00 0.00 0.00 0.00 0.00 0.00 0.00 0.00 0.00 0.00 0.00 0.00 0.00 0.00 0.00 0.00 0.00 0.00 0.00 0.00 0.00 0.00 0.00 0.00 0.00 0.00 0.00 0.00 0.00 0.00 0.00 0.00 0.00 0.00 0.00 0.00 0.00 0.00 0.00
0.00 0.00 0.00 0.00 0.00 0.00 0.00 0.00 0.00 0.00 0.00 0.00 0.00 0.00 0.00 0.00 0.00 0.00 0.00 0.00 0.00 0.00 0.00 0.00 0.00 0.00 0.00 0.00 0.00 0.00 0.00 0.00 0.00 0.00 0.00 0.00 0.00 0.00 0.00 0.00 0.00 0.00 0.00 0.00 0.00
0.00 0.00 0.00 0.00 0.00 0.00 0.00 0.00 0.00 0.00 0.00 0.00 0.00 0.00 0.00 0.00 0.00 0.00 0.00 0.00 0.00 0.00 0.00 0.00 0.00 0.00 0.00 0.00 0.00 0.00 0.00 0.00 0.00 0.00 0.00 0.00 0.00 0.00 0.00 0.00 0.00 0.00 0.00 0.00 0.00
0.00 0.00 0.00 0.00 0.00 0.00 0.00 0.00 0.00 0.00 0.00 0.00 0.00 0.00 0.00 0.00 0.00 0.00 0.00 0.00 0.00 0.00 0.00 0.00 0.00 0.00 0.00 0.00 0.00 0.00 0.00 0.00 0.00 0.00 0.00 0.00 0.00 0.00 0.00 0.00 0.00 0.00 0.00 0.00 0.00
0.00 0.00 0.00 0.00 0.00 0.00 0.00 0.00 0.00 0.00 0.00 0.00 0.00 0.00 0.00 0.00 0.00 0.00 0.00 0.00 0.00 0.00 0.00 0.00 0.00 0.00 0.00 0.00 0.00 0.00 0.00 0.00 0.00 0.00 0.00 0.00 0.00 0.00 0.00 0.00 0.00 0.00 0.00 0.00 0.00
0.00 0.00 0.00 0.00 0.00 0.00 0.00 0.00 0.00 0.00 0.00 0.00 0.00 0.00 0.00 0.00 0.00 0.00 0.00 0.00 0.00 0.00 0.00 0.00 0.00 0.00 0.00 0.00 0.00 0.00 0.00 0.00 0.00 0.00 0.00 0.00 0.00 0.00 0.00 0.00 0.00 0.00 0.00 0.00 0.00
0.00 0.00 0.00 0.00 0.00 0.00 0.00 0.00 0.00 0.00 0.00 0.00 0.00 0.00 0.00 0.00 0.00 0.00 0.00 0.00 0.00 0.00 0.00 0.00 0.00 0.00 0.00 0.00 0.00 0.00 0.00 0.00 0.00 0.00 0.00 0.00 0.00 0.00 0.00 0.00 0.00 0.00 0.00 0.00 0.00
0.00 0.00 0.00 0.00 0.00 0.00 0.00 0.00 0.00 0.00 0.00 0.00 0.00 0.00 0.00 0.00 0.00 0.00 0.00 0.00 0.00 0.00 0.00 0.00 0.00 0.00 0.00 0.00 0.00 0.00 0.00 0.00 0.00 0.00 0.00 0.00 0.00 0.00 0.00 0.00 0.00 0.00 0.00 0.00 0.00
0.00 0.00 0.00 0.00 0.00 0.00 0.00 0.00 0.00 0.00 0.00 0.00 0.00 0.00 0.00 0.00 0.00 0.00 0.00 0.00 0.00 0.00 0.00 0.00 0.00 0.00 0.00 0.00 0.00 0.00 0.00 0.00 0.00 0.00 0.00 0.00 0.00 0.00 0.00 0.00 0.00 0.00 0.00 0.00 0.00
0.00 0.00 0.00 0.00 0.00 0.00 0.00 0.00 0.00 0.00 0.00 0.00 0.00 0.00 0.00 0.00 0.00 0.00 0.00 0.00 0.00 0.00 0.00 0.00 0.00 0.00 0.00 0.00 0.00 0.00 0.00 0.00 0.00 0.00 0.00 0.00 0.00 0.00 0.00 0.00 0.00 0.00 0.00 0.00 0.00
0.00 0.00 0.00 0.00 0.00 0.00 0.00 0.00 0.00 0.00 0.00 0.00 0.00 0.00 0.00 0.00 0.00 0.00 0.00 0.00 0.00 0.00 0.00 0.00 0.00 0.00 0.00 0.00 0.00 0.00 0.00 0.00 0.00 0.00 0.00 0.00 0.00 0.00 0.00 0.00 0.00 0.00 0.00 0.00 0.00
0.00 0.00 0.00 0.00 0.00 0.00 0.00 0.00 0.00 0.00 0.00 0.00 0.00 0.00 0.00 0.00 0.00 0.00 0.00 0.00 0.00 0.00 0.00 0.00 0.00 0.00 0.00 0.00 0.00 0.00 0.00 0.00 0.00 0.00 0.00 0.00 0.00 0.00 0.00 0.00 0.00 0.00 0.00 0.00 0.00
0.00 0.00 0.00 0.00 0.00 0.00 0.00 0.00 0.00 0.00 0.00 0.00 0.00 0.00 0.00 0.00 0.00 0.00 0.00 0.00 0.00 0.00 0.00 0.00 0.00 0.00 0.00 0.00 0.00 0.00 0.00 0.00 0.00 0.00 0.00 0.00 0.00 0.00 0.00 0.00 0.00 0.00 0.00 0.00 0.00
0.00 0.00 0.00 0.00 0.00 0.00 0.00 0.00 0.00 0.00 0.00 0.00 0.00 0.00 0.00 0.00 0.00 0.00 0.00 0.00 0.00 0.00 0.00 0.00 0.00 0.00 0.00 0.00 0.00 0.00 0.00 0.00 0.00 0.00 0.00 0.00 0.00 0.00 0.00 0.00 0.00 0.00 0.00 0.00 0.00
0.00 0.00 0.00 0.00 0.00 0.00 0.00 0.00 0.00 0.00 0.00 0.00 0.00 0.00 0.00 0.00 0.00 0.00 0.00 0.00 0.00 0.00 0.00 0.00 0.00 0.00 0.00 0.00 0.00 0.00 0.00 0.00 0.00 0.00 0.00 0.00 0.00 0.00 0.00 0.00 0.00 0.00 0.00 0.00 0.00
0.00 0.00 0.00 0.00 0.00 0.00 0.01 0.01 0.00 0.00 0.00 0.00 0.00 0.00 0.00 0.00 0.00 0.00 0.00 0.00 0.00 0.00 0.00 0.00 0.00 0.00 0.00 0.00 0.00 0.00 0.00 0.00 0.00 0.00 0.00 0.00 0.00 0.00 0.00 0.00 0.00 0.00 0.00 0.00 0.00
0.00 0.00 0.00 0.00 0.01 0.02 0.01 0.00 0.00 0.00 0.00 0.00 0.00 0.00 0.00 0.00 0.00 0.00 0.00 0.00 0.00 0.00 0.00 0.00 0.00 0.00 0.00 0.00 0.00 0.00 0.00 0.00 0.00 0.00 0.00 0.00 0.00 0.00 0.00 0.00 0.00 0.00 0.00 0.00 0.00
0.00 0.00 0.00 0.00 0.00 0.02 0.00 0.00 0.00 0.00 0.00 0.00 0.00 0.00 0.00 0.00 0.00 0.00 0.00 0.00 0.00 0.00 0.00 0.00 0.00 0.00 0.00 0.00 0.00 0.00 0.00 0.00 0.00 0.00 0.00 0.00 0.00 0.00 0.00 0.00 0.00 0.00 0.00 0.00 0.00
0.00 0.00 0.00 0.00 0.00 0.00 0.00 0.00 0.00 0.00 0.00 0.00 0.00 0.00 0.00 0.00 0.00 0.00 0.00 0.00 0.00 0.00 0.00 0.00 0.01 0.00 0.00 0.00 0.00 0.00 0.00 0.00 0.02 0.01 0.01 0.01 0.00 0.00 0.00 0.00 0.00 0.00 0.00 0.00 0.00
0.00 0.00 0.01 0.01 0.00 0.00 0.00 0.00 0.00 0.00 0.00 0.00 0.00 0.00 0.00 0.00 0.00 0.00 0.00 0.00 0.00 0.00 0.00 0.01 0.01 0.00 0.00 0.00 0.00 0.00 0.00 0.00 0.01 0.02 0.02 0.02 0.00 0.00 0.00 0.00 0.00 0.00 0.00 0.00 0.00
0.00 0.00 0.01 0.01 0.00 0.00 0.00 0.00 0.00 0.00 0.00 0.00 0.00 0.00 0.00 0.00 0.00 0.00 0.00 0.00 0.00 0.00 0.00 0.00 0.00 0.00 0.00 0.00 0.00 0.00 0.00 0.00 0.01 0.02 0.01 0.01 0.00 0.00 0.00 0.01 0.00 0.00 0.00 0.00 0.00
0.00 0.00 0.00 0.00 0.00 0.00 0.00 0.00 0.00 0.00 0.00 0.00 0.00 0.00 0.00 0.00 0.00 0.00 0.00 0.00 0.00 0.00 0.00 0.00 0.00 0.00 0.00 0.00 0.00 0.00 0.00 0.00 0.00 0.00 0.00 0.00 0.00 0.00 0.00 0.00 0.00 0.00 0.00 0.00 0.00
0.00 0.00 0.00 0.00 0.00 0.00 0.00 0.00 0.00 0.00 0.00 0.00 0.00 0.00 0.00 0.00 0.00 0.00 0.00 0.00 0.00 0.00 0.00 0.00 0.00 0.00 0.00 0.00 0.00 0.00 0.00 0.00 0.00 0.00 0.00 0.00 0.00 0.00 0.00 0.00 0.00 0.00 0.00 0.00 0.00
0.00 0.00 0.00 0.00 0.00 0.00 0.00 0.00 0.00 0.00 0.00 0.00 0.00 0.00 0.00 0.00 0.00 0.00 0.00 0.00 0.00 0.00 0.00 0.00 0.00 0.00 0.00 0.00 0.00 0.00 0.00 0.00 0.00 0.00 0.00 0.00 0.00 0.00 0.00 0.00 0.00 0.00 0.00 0.00 0.00
MSLP
1018.59 1018.53 1018.38 1018.26 1018.16 1018.03 1017.92 1017.76 1017.62 1017.37 1017.09 1016.88 1016.62 1016.30 1016.05 1015.66 1015.20 1015.20 1013.96 1013.08 1012.85 1013.13 1013.44 1013.43 1013.36 1013.15 1013.06 1012.88 1013.07 1012.91 1012.81 1012.00 1011.32 1010.94 1010.85 1010.95 1011.14 1011.02 1010.99 1011.06 1010.90 1010.75 1010.48 1010.13 1010.43
1018.66 1018.55 1018.41 1018.32 1018.17 1018.03 1017.93 1017.77 1017.60 1017.34 1017.07 1016.79 1016.53 1016.24 1015.98 1015.72 1014.96 1013.90 1012.99 1012.72 1012.96 1013.25 1013.44 1013.26 1013.10 1013.12 1013.01 1012.94 1013.13 1013.13 1012.70 1011.88 1011.22 1011.14 1011.33 1011.38 1011.38 1011.49 1011.46 1011.24 1010.96 1010.39 1009.70 1009.74 1009.94
1018.64 1018.53 1018.41 1018.28 1018.15 1018.00 1017.87 1017.69 1017.50 1017.24 1016.99 1016.72 1016.41 1016.10 1015.89 1015.73 1014.82 1013.15 1012.92 1012.78 1012.93 1013.12 1013.02 1012.93 1012.82 1012.98 1012.93 1012.72 1012.91 1012.74 1012.60 1011.97 1011.65 1011.58 1011.69 1011.94 1011.98 1011.80 1011.54 1011.40 1011.09 1010.72 1010.29 1010.07 1010.04
1018.62 1018.52 1018.42 1018.31 1018.15 1017.94 1017.79 1017.58 1017.37 1017.10 1016.90 1016.64 1016.34 1016.02 1015.75 1015.37 1014.49 1013.04 1012.95 1012.99 1013.08 1013.14 1012.99 1012.84 1012.92 1013.05 1012.95 1012.75 1012.52 1012.64 1012.56 1012.40 1012.11 1011.85 1012.13 1012.29 1012.23 1012.21 1011.82 1011.13 1010.59 1010.36 1010.04 1010.02 1010.08
1018.48 1018.42 1018.31 1018.17 1017.97 1017.80 1017.62 1017.42 1017.15 1016.87 1016.67 1016.50 1016.32 1016.09 1015.67 1015.01 1013.48 1013.09 1013.20 1013.36 1013.41 1013.41 1013.12 1012.88 1012.83 1012.83 1012.77 1012.44 1012.45 1012.51 1012.66 1012.67 1012.24 1012.16 1012.20 1012.21 1012.35 1012.62 1011.41 1010.82 1010.31 1009.98 1009.72 1009.71 1009.87
1018.30 1018.28 1018.17 1018.00 1017.75 1017.52 1017.36 1017.12 1016.81 1016.47 1016.24 1016.20 1016.06 1016.15 1015.80 1014.50 1012.86 1013.03 1013.12 1013.55 1013.39 1013.44 1013.18 1012.95 1012.67 1012.77 1012.77 1012.74 1012.94 1012.55 1012.77 1012.78 1012.54 1012.22 1012.09 1012.21 1012.14 1012.42 1010.85 1010.25 1009.94 1009.59 1009.61 1009.73 1009.90
1018.07 1018.06 1018.01 1017.90 1017.62 1017.32 1017.02 1016.75 1016.50 1016.16 1015.91 1015.88 1015.99 1015.72 1015.02 1013.82 1012.94 1013.08 1013.24 1013.33 1013.31 1013.30 1013.40 1013.05 1013.08 1013.31 1013.02 1012.93 1013.17 1013.13 1013.36 1012.81 1011.82 1011.56 1011.83 1012.11 1011.92 1011.82 1010.71 1010.28 1009.80 1009.92 1009.93 1009.92 1010.00
1017.84 1017.75 1017.68 1017.61 1017.40 1017.10 1016.75 1016.43 1016.14 1015.87 1015.64 1015.53 1015.65 1015.53 1014.36 1013.42 1013.13 1013.30 1013.43 1013.65 1013.70 1013.65 1013.70 1013.62 1013.55 1013.75 1013.56 1013.24 1013.40 1013.43 1013.37 1012.79 1011.49 1011.39 1012.28 1012.12 1011.91 1011.29 1010.70 1010.64 1009.93 1010.12 1010.36 1010.11 1010.40
1017.78 1017.69 1017.56 1017.38 1017.13 1016.81 1016.43 1016.09 1015.97 1015.92 1015.76 1015.62 1015.67 1015.04 1013.91 1013.65 1013.49 1013.50 1013.43 1013.37 1013.69 1013.85 1013.95 1014.01 1014.08 1014.03 1013.88 1014.04 1014.00 1013.46 1013.03 1012.36 1011.67 1011.18 1012.19 1012.49 1012.18 1011.18 1010.50 1010.45 1010.01 1010.02 1010.18 1010.39 1011.68
1017.63 1017.49 1017.47 1017.26 1016.95 1016.56 1016.00 1015.61 1015.74 1015.92 1015.77 1015.33 1014.86 1014.85 1013.81 1013.55 1013.69 1013.70 1013.67 1013.52 1013.75 1014.12 1014.27 1014.28 1014.29 1014.20 1014.20 1014.24 1013.77 1013.14 1012.83 1012.37 1012.05 1011.71 1011.83 1012.40 1012.08 1011.59 1010.47 1010.19 1010.33 1010.27 1010.16 1011.82 1013.14
1017.35 1017.29 1017.20 1017.07 1016.72 1016.44 1015.98 1015.58 1016.20 1016.03 1015.16 1014.04 1013.73 1013.32 1013.03 1013.78 1013.88 1013.80 1013.81 1013.86 1013.84 1014.05 1014.15 1014.27 1014.42 1013.94 1013.60 1013.48 1013.33 1013.20 1013.07 1012.74 1012.30 1012.05 1012.07 1011.82 1011.67 1011.38 1010.58 1009.92 1010.34 1010.88 1011.53 1012.79 1013.92
1016.98 1017.08 1017.04 1016.99 1016.71 1016.16 1016.08 1015.69 1016.53 1016.86 1015.43 1013.38 1012.80 1012.65 1012.76 1013.03 1013.60 1013.92 1014.16 1014.20 1014.00 1013.81 1013.78 1014.36 1013.93 1013.19 1012.95 1012.92 1013.05 1013.19 1013.23 1012.90 1012.39 1011.97 1012.28 1012.07 1011.75 1011.25 1010.43 1010.08 1010.51 1011.41 1012.91 1013.89 1015.01
1016.60 1016.70 1016.96 1016.92 1016.69 1016.25 1015.90 1016.45 1016.47 1016.37 1015.90 1013.25 1012.54 1012.61 1013.21 1013.58 1013.54 1013.84 1014.23 1013.94 1013.97 1013.86 1013.58 1013.41 1012.71 1012.67 1012.84 1012.96 1013.07 1013.29 1013.48 1013.24 1013.07 1012.60 1012.59 1012.51 1012.08 1011.36 1010.09 1009.76 1011.16 1012.67 1014.03 1015.32 1016.54
1016.38 1016.41 1016.63 1016.81 1017.21 1015.73 1016.00 1016.52 1016.53 1016.49 1015.62 1013.45 1013.15 1013.33 1013.34 1013.48 1014.01 1014.30 1014.08 1014.36 1013.78 1013.63 1013.60 1013.21 1012.94 1012.98 1012.95 1012.84 1013.26 1013.42 1013.22 1013.28 1013.56 1013.91 1013.70 1013.22 1012.34 1011.50 1010.35 1011.32 1012.41 1013.79 1015.29 1016.62 1017.51
1016.00 1016.32 1016.48 1016.83 1016.67 1015.70 1016.16 1016.41 1016.57 1016.67 1015.14 1012.96 1013.30 1013.61 1013.36 1013.57 1014.16 1014.56 1014.45 1014.19 1014.13 1013.72 1013.93 1012.95 1013.00 1013.24 1013.16 1012.92 1012.89 1013.28 1013.44 1013.77 1014.29 1014.57 1014.50 1013.92 1013.74 1011.00 1010.64 1012.47 1014.00 1015.16 1016.28 1017.30 1017.96
1015.88 1015.89 1016.23 1016.58 1016.47 1016.00 1016.01 1016.39 1016.59 1016.53 1014.19 1012.81 1013.04 1013.25 1013.32 1013.38 1013.76 1014.37 1014.51 1014.48 1014.04 1013.69 1013.33 1013.05 1013.33 1013.09 1012.69 1012.82 1013.01 1013.61 1013.88 1014.06 1014.47 1015.22 1014.99 1013.68 1013.10 1011.63 1011.27 1012.33 1014.49 1015.92 1016.73 1017.61 1018.40
1015.88 1015.67 1016.08 1016.07 1016.20 1015.99 1016.12 1016.32 1016.51 1015.22 1013.18 1012.77 1012.62 1012.82 1012.86 1013.02 1013.39 1013.70 1013.93 1014.16 1014.07 1013.90 1013.59 1013.10 1012.94 1012.91 1013.15 1013.48 1013.60 1014.26 1014.65 1014.78 1015.47 1015.70 1014.51 1013.64 1013.30 1011.91 1011.94 1012.64 1013.90 1015.71 1017.11 1017.87 1018.51
1015.72 1015.98 1015.90 1016.04 1016.35 1016.16 1016.56 1016.49 1015.52 1014.04 1012.93 1012.84 1012.66 1012.73 1012.64 1012.69 1012.87 1013.15 1013.26 1013.33 1013.12 1013.50 1013.66 1013.21 1013.04 1013.16 1013.30 1013.55 1013.66 1014.03 1014.54 1015.62 1016.11 1016.10 1015.48 1014.78 1013.88 1012.75 1013.27 1013.79 1014.60 1016.06 1017.34 1018.35 1018.98
1015.73 1016.02 1015.98 1015.86 1016.13 1016.43 1016.60 1015.94 1014.73 1013.82 1012.46 1012.46 1012.77 1012.80 1012.47 1012.57 1013.00 1012.69 1012.81 1012.39 1012.55 1013.14 1013.60 1013.16 1012.83 1013.04 1012.93 1013.33 1013.64 1014.26 1015.01 1015.79 1016.48 1016.65 1016.59 1015.05 1013.74 1013.23 1013.90 1014.92 1015.80 1017.03 1018.01 1018.86 1019.48
1016.00 1016.06 1015.98 1015.92 1016.25 1016.37 1016.41 1015.04 1014.18 1013.49 1012.82 1012.61 1012.68 1012.46 1012.52 1012.63 1013.16 1012.95 1012.66 1012.40 1012.97 1013.49 1013.70 1013.79 1013.92 1013.42 1013.66 1013.88 1013.99 1014.41 1015.24 1016.38 1017.58 1017.50 1016.28 1014.88 1014.39 1013.62 1014.58 1015.57 1016.30 1017.56 1018.24 1018.86 1019.36
1016.11 1016.42 1016.44 1016.24 1016.52 1016.28 1015.59 1015.00 1013.72 1013.24 1013.25 1013.39 1012.69 1012.51 1012.58 1013.01 1012.93 1012.87 1012.72 1012.77 1012.95 1013.34 1013.77 1014.71 1014.98 1014.61 1014.52 1014.48 1014.52 1015.30 1015.42 1015.82 1016.71 1016.95 1016.42 1015.80 1014.13 1013.42 1014.76 1015.67 1016.46 1017.48 1018.67 1019.15 1019.54
1016.13 1016.15 1016.30 1016.34 1017.09 1016.29 1015.37 1014.63 1014.20 1013.33 1013.31 1013.20 1013.20 1013.16 1013.13 1013.25 1013.52 1013.63 1013.11 1013.29 1013.71 1013.89 1014.43 1015.11 1015.83 1016.12 1015.21 1014.80 1014.83 1015.24 1015.72 1016.03 1016.59 1016.68 1016.39 1015.72 1014.76 1013.93 1015.34 1016.37 1017.09 1018.22 1019.02 1019.63 1019.82
1015.99 1015.89 1016.46 1016.53 1016.00 1015.40 1014.67 1013.99 1013.54 1013.51 1013.45 1013.39 1013.37 1013.32 1013.56 1013.78 1014.24 1013.61 1013.69 1013.57 1013.98 1014.70 1015.19 1015.83 1016.76 1017.31 1016.47 1015.73 1015.84 1016.06 1016.10 1016.32 1016.86 1016.86 1016.54 1016.49 1014.93 1015.08 1016.74 1017.26 1017.80 1018.25 1018.68 1018.95 1019.17
1015.37 1015.94 1016.48 1016.34 1015.28 1014.97 1014.52 1013.55 1013.37 1013.14 1013.47 1013.49 1013.35 1013.55 1013.90 1014.20 1014.32 1014.16 1014.23 1014.56 1014.94 1015.63 1016.16 1016.70 1017.51 1017.86 1017.79 1017.04 1017.02 1017.27 1017.03 1017.08 1017.69 1017.77 1017.07 1016.53 1015.99 1015.79 1016.19 1016.97 1017.15 1017.19 1017.25 1017.92 1018.74
1015.41 1014.90 1014.48 1015.47 1015.03 1014.97 1014.71 1013.51 1013.25 1013.37 1013.61 1013.65 1013.70 1013.91 1014.43 1014.67 1014.89 1015.04 1015.32 1015.60 1016.04 1016.40 1017.08 1017.71 1018.44 1018.94 1018.95 1018.78 1018.42 1018.20 1017.99 1017.50 1017.72 1017.65 1017.76 1016.58 1016.85 1016.47 1016.68 1016.71 1016.94 1017.04 1017.39 1018.07 1018.70
1015.59 1015.46 1015.48 1014.96 1014.35 1014.70 1014.47 1013.67 1013.69 1013.63 1013.76 1013.86 1014.16 1014.44 1014.93 1015.33 1015.74 1016.41 1016.62 1017.06 1017.16 1017.36 1018.04 1018.53 1019.05 1019.92 1020.17 1020.24 1019.85 1019.25 1018.34 1017.99 1018.05 1017.67 1017.36 1017.38 1017.00 1017.18 1017.35 1017.26 1017.40 1017.68 1018.05 1018.50 1018.77
1016.21 1015.76 1015.43 1014.69 1014.68 1014.45 1013.70 1013.66 1014.00 1014.51 1014.63 1014.73 1015.16 1015.65 1016.11 1016.81 1017.48 1018.00 1018.28 1018.59 1018.84 1018.95 1019.22 1019.79 1020.34 1021.35 1021.20 1021.40 1020.87 1020.09 1017.50 1017.64 1017.16 1017.30 1017.45 1017.73 1018.00 1018.33 1018.06 1018.13 1018.27 1018.42 1018.46 1018.55 1018.74
Thickness
5699 5700 5703 5705 5707 5708 5710 5712 5714 5717 5720 5722 5724 5727 5730 5733 5738 5739 5742 5751 5753 5751 5748 5747 5743 5742 5742 5736 5735 5736 5705 5702 5717 5722 5724 5732 5726 5737 5742 5730 5732 5741 5738 5746 5748
5694 5696 5698 5700 5702 5704 5706 5708 5710 5713 5716 5720 5723 5725 5728 5730 5737 5742 5751 5752 5750 5747 5742 5736 5732 5734 5727 5728 5725 5715 5703 5714 5731 5730 5720 5723 5723 5722 5722 5722 5722 5731 5748 5752 5749
5689 5692 5694 5696 5698 5700 5702 5704 5706 5710 5712 5715 5719 5722 5724 5725 5730 5741 5747 5748 5746 5743 5743 5739 5736 5729 5719 5728 5721 5719 5703 5722 5723 5726 5723 5715 5713 5721 5717 5713 5718 5722 5733 5741 5740
5685 5687 5690 5692 5694 5697 5699 5701 5703 5706 5709 5712 5715 5718 5721 5725 5708 5738 5741 5741 5739 5737 5735 5731 5725 5715 5711 5709 5721 5706 5716 5716 5718 5721 5716 5707 5712 5706 5715 5719 5728 5731 5736 5738 5734
5680 5683 5685 5687 5690 5692 5694 5697 5700 5703 5705 5707 5709 5712 5717 5717 5724 5732 5734 5732 5730 5729 5724 5721 5715 5712 5704 5714 5715 5706 5708 5711 5713 5714 5711 5712 5702 5697 5712 5724 5732 5733 5733 5731 5730
5676 5677 5679 5682 5685 5688 5690 5692 5696 5699 5702 5703 5704 5705 5708 5703 5729 5725 5725 5723 5723 5720 5718 5718 5715 5714 5708 5705 5698 5708 5702 5701 5704 5704 5707 5703 5702 5697 5714 5726 5726 5729 5725 5724 5722
5669 5671 5673 5675 5679 5682 5686 5688 5691 5694 5697 5697 5696 5699 5703 5709 5721 5719 5717 5716 5717 5715 5707 5714 5711 5702 5703 5698 5698 5697 5681 5692 5703 5703 5698 5701 5694 5689 5709 5718 5720 5717 5714 5716 5714
5662 5664 5666 5669 5672 5676 5680 5683 5686 5689 5691 5692 5691 5693 5696 5713 5714 5711 5709 5706 5707 5707 5702 5702 5701 5692 5690 5698 5689 5680 5676 5666 5700 5700 5682 5685 5673 5699 5707 5701 5710 5706 5705 5708 5706
5654 5657 5659 5662 5665 5669 5674 5678 5679 5680 5682 5683 5684 5687 5693 5705 5702 5703 5702 5699 5696 5695 5693 5692 5687 5679 5681 5667 5657 5669 5654 5665 5673 5699 5674 5666 5661 5696 5703 5698 5700 5700 5700 5700 5688
5647 5650 5651 5654 5657 5662 5668 5673 5672 5671 5673 5675 5679 5673 5684 5690 5690 5692 5693 5693 5686 5680 5677 5675 5668 5658 5660 5652 5637 5654 5655 5661 5654 5675 5674 5654 5652 5669 5692 5696 5690 5693 5697 5680 5671
5640 5642 5645 5646 5650 5654 5659 5666 5664 5662 5668 5677 5676 5677 5682 5678 5681 5680 5681 5678 5677 5672 5660 5658 5648 5642 5655 5658 5660 5656 5650 5646 5657 5665 5661 5663 5661 5663 5674 5687 5686 5687 5674 5668 5660
5634 5634 5636 5637 5641 5647 5649 5654 5646 5642 5648 5675 5679 5675 5676 5674 5664 5665 5669 5661 5660 5655 5657 5645 5638 5658 5661 5663 5654 5644 5634 5636 5649 5658 5651 5648 5649 5663 5672 5674 5675 5670 5658 5653 5644
5626 5627 5627 5629 5632 5637 5640 5636 5635 5636 5633 5663 5669 5663 5657 5657 5656 5654 5656 5654 5647 5644 5647 5642 5655 5659 5653 5646 5641 5636 5626 5629 5629 5642 5642 5627 5625 5642 5670 5677 5660 5650 5643 5635 5625
5617 5618 5618 5618 5619 5630 5627 5624 5624 5625 5623 5643 5641 5644 5648 5647 5640 5640 5644 5639 5639 5635 5636 5632 5647 5639 5632 5627 5629 5619 5635 5631 5625 5616 5600 5624 5595 5634 5656 5639 5634 5630 5619 5610 5604
5608 5607 5607 5608 5612 5619 5615 5613 5613 5611 5599 5639 5626 5632 5634 5634 5630 5626 5631 5629 5620 5626 5624 5630 5624 5621 5618 5625 5631 5621 5620 5621 5616 5603 5597 5606 5586 5624 5638 5614 5606 5601 5597 5590 5587
5598 5600 5600 5598 5601 5606 5605 5603 5602 5597 5585 5622 5622 5621 5620 5621 5618 5616 5618 5618 5619 5618 5620 5618 5617 5620 5624 5625 5622 5613 5609 5607 5601 5592 5572 5604 5601 5617 5625 5618 5593 5586 5582 5577 5571
5589 5592 5590 5592 5594 5593 5594 5593 5586 5578 5617 5612 5614 5616 5614 5609 5607 5607 5606 5599 5599 5597 5595 5605 5608 5613 5612 5603 5603 5598 5592 5572 5565 5559 5573 5604 5590 5613 5617 5612 5599 5583 5568 5561 5555
5579 5578 5581 5580 5580 5582 5579 5575 5568 5587 5600 5606 5607 5604 5602 5606 5603 5599 5598 5596 5603 5599 5586 5590 5590 5594 5596 5598 5594 5591 5590 5561 5553 5554 5563 5583 5570 5604 5593 5587 5580 5567 5555 5546 5538
5567 5566 5569 5571 5569 5568 5568 5562 5571 5578 5601 5599 5593 5587 5592 5594 5591 5593 5593 5599 5599 5592 5579 5584 5591 5591 5597 5596 5592 5576 5564 5566 5544 5529 5529 5569 5589 5596 5580 5567 5556 5545 5536 5525 5521
5553 5555 5558 5557 5555 5556 5555 5564 5571 5581 5584 5584 5576 5587 5577 5581 5571 5578 5586 5591 5579 5578 5577 5569 5559 5588 5573 5573 5570 5564 5558 5535 5522 5517 5514 5547 5561 5578 5562 5548 5539 5529 5519 5512 5508
5538 5538 5541 5542 5540 5543 5543 5552 5568 5576 5570 5563 5568 5571 5575 5568 5567 5568 5571 5572 5572 5566 5564 5552 5545 5559 5559 5558 5554 5542 5539 5539 5536 5525 5505 5516 5539 5581 5551 5538 5523 5512 5500 5492 5485
5522 5525 5529 5526 5518 5523 5532 5549 5553 5557 5557 5556 5556 5553 5554 5555 5544 5542 5551 5554 5551 5549 5543 5537 5522 5512 5541 5551 5545 5534 5531 5528 5510 5518 5512 5511 5515 5568 5528 5508 5499 5485 5477 5471 5467
5509 5514 5510 5512 5518 5528 5535 5541 5543 5539 5540 5539 5539 5541 5543 5538 5523 5536 5536 5545 5536 5532 5525 5517 5494 5485 5500 5532 5518 5517 5521 5517 5508 5494 5496 5485 5503 5534 5486 5478 5475 5469 5460 5457 5453
5505 5499 5499 5500 5518 5523 5524 5533 5528 5532 5526 5529 5532 5530 5525 5521 5523 5520 5523 5520 5516 5512 5504 5503 5495 5481 5478 5501 5508 5490 5493 5494 5482 5467 5475 5475 5487 5501 5501 5482 5473 5461 5455 5448 5438
5486 5497 5505 5491 5503 5502 5505 5521 5517 5514 5514 5517 5516 5514 5508 5504 5507 5507 5507 5503 5496 5488 5490 5482 5457 5468 5471 5478 5480 5471 5467 5479 5466 5468 5449 5470 5460 5477 5475 5461 5447 5448 5440 5429 5417
5470 5472 5473 5480 5498 5491 5492 5504 5499 5503 5501 5500 5500 5500 5496 5492 5491 5477 5477 5477 5479 5474 5466 5465 5425 5439 5421 5441 5436 5431 5446 5449 5445 5448 5444 5445 5443 5454 5431 5428 5427 5424 5414 5406 5399
5443 5448 5452 5473 5471 5474 5486 5488 5484 5481 5479 5474 5476 5473 5470 5462 5449 5447 5445 5443 5443 5444 5438 5428 5408 5373 5403 5417 5407 5373 5439 5432 5439 5445 5440 5421 5415 5388 5396 5399 5392 5384 5380 5378 5374